www.pogodaiklimat.ru

Погода и климат >> Архив погоды >> Дания >> Скаген


ПОГОДА в Скагене

  • Прогноз погоды в Скагене
  • Монитор погоды в Скагене

АРХИВ ПОГОДЫ в Скагене

Время (UTC), дата Ветер
(напр.,м/с)
 
Видим.   Явления Облачность Т
(С)
Тd
(С)
f
(%)
Тe
(С)
Тes
(С)
Комфортность P
(гПа)
Po
(гПа)
Тmin
(С)
Tmax
(С)
R
(мм)
R24
(мм)
S
(см)
19 10.06 С 3 40 км 1/0
[]
+13.9 +10.0 77 +13 +13 1019.2 1018.6
20 10.06 С 3 45 км 9/0 2000 м
[]
+13.5 +10.1 80 +12 +12 1019.4 1018.8
21 10.06 С 5 50 км 9/0
[]
+12.7 +10.1 84 +11 +11 1019.2 1018.6
22 10.06 СВ 5 50 км 4/0
[]
+12.8 +10.3 85 +11 +11 1019.1 1018.5
23 10.06 СВ 5 45 км 6/0
[]
+12.8 +10.8 88 +11 +11 1018.9 1018.3
00 11.06 СВ 6 50 км 9/0
[]
+13.0 +10.4 84 +11 +11 1018.6 1018.0
01 11.06 СВ 6 50 км 9/0
[]
+13.3 +10.5 83 +11 +11 1018.2 1017.6
02 11.06 СВ 7 50 км 9/0
[]
+13.3 +10.3 82 +11 +11 1018.0 1017.4
03 11.06 СВ 7 50 км 9/0 2000 м
[]
+13.4 +9.8 79 +11 +11 1017.4 1016.9
04 11.06 СВ 8 45 км 9/0
[]
+13.8 +10.0 78 +11 +11 1016.7 1016.1
05 11.06 СВ 8 50 км 9/0 2000 м
[]
+14.3 +9.8 74 +12 +12 1016.9 1016.3
06 11.06 СВ 8 35 км 9/9 1500 м
[]
+14.5 +10.5 77 +12 +12 1016.8 1016.2 +12.5 +15.0
07 11.06 СВ 8 35 км слаб. ливневой дождь 9/9 1500 м
[]
+14.5 +10.8 78 +12 +12 1016.6 1016.0
08 11.06 СВ 8 30 км {ливн. осадки} 9/9 1500 м
[]
+14.9 +11.2 79 +13 +13 1016.6 1016.0
09 11.06 СВ 8 35 км {ливн. осадки, дождь} 9/9 1350 м
[]
+15.4 +11.3 77 +13 +14 1016.8 1016.2 0.0
10 11.06 В 11 8000 м слаб. дождь {морось} 9/9 1000 м
[]
+14.4 +12.4 88 +12 +12 1016.7 1016.1 0.3
11 11.06 СВ 9 26 км в посл. час морось {ливн. осадки, дождь} 9/9 1050 м
[]
+13.9 +12.3 90 +11 +11 1016.3 1015.8 0.3
12 11.06 СВ 12 19 км в посл. час морось {ливн. осадки, дождь} 9/9 1170 м
[]
+14.1 +12.5 90 +11 +11 1015.7 1015.1 0.6
13 11.06 СВ 11 20 км 9/9 1440 м
[]
+14.6 +12.4 87 +12 +12 1015.7 1015.2
14 11.06 СВ 13 19 км 4/0
[]
+15.2 +12.4 83 +12 +12 1015.1 1014.5
15 11.06 В 13 13 км 9/9 840 м
[]
+15.1 +12.7 86 +12 +12 1015.3 1014.7
16 11.06 В 13 11 км {ливн. осадки, дождь} 9/9 800 м
[]
+15.1 +12.7 86 +12 +12 1014.8 1014.2
17 11.06 В 14 12 км в посл. час дождь {ливн. осадки} 9/9 840 м
[]
+14.8 +12.4 86 +12 +12 1014.6 1014.0
18 11.06 В 13 11 км {ливн. осадки, дождь} 9/9 800 м
[]
+15.0 +12.6 86 +12 +12 1014.9 1014.3 +13.9 +15.6 0.0
19 11.06 В 12 12 км 9/9 800 м
[]
+15.0 +12.7 86 +12 +12 1015.2 1014.7
20 11.06 В 12 13 км 9/9 720 м
[]
+15.0 +12.6 86 +12 +12 1015.4 1014.8
21 11.06 В 12 16 км 10/10 800 м
[]
+15.0 +12.4 84 +12 +12 1015.8 1015.3
22 11.06 В 12 19 км 9/9 800 м
[]
+15.0 +12.4 84 +12 +12 1015.9 1015.3
23 11.06 В 12 17 км 10/10 870 м
[]
+14.8 +11.6 81 +12 +12 1016.3 1015.7
00 12.06 В 11 12 км 9/9 930 м
[]
+14.5 +11.6 83 +12 +12 1016.7 1016.1
01 12.06 В 11 11 км в посл. час морось {ливн. осадки, дождь} 10/10 960 м
[]
+14.2 +11.8 85 +11 +11 1017.0 1016.4
02 12.06 В 12 16 км 9/9 1020 м
[]
+14.0 +10.9 82 +11 +11 1017.0 1016.4
03 12.06 В 12 15 км {ливн. осадки, дождь} ясно +13.9 +10.6 80 +11 +11 1016.4 1015.8 0.0
04 12.06 В 13 17 км 4/4 960 м
[]
+13.7 +10.1 79 +10 +10 1017.0 1016.4
05 12.06 В 13 16 км 10/10 930 м
[]
+13.8 +9.7 76 +10 +10 1016.6 1016.0
06 12.06 В 12 22 км {ливн. осадки, дождь} 9/9 1020 м
[]
+13.8 +9.2 74 +11 +11 1016.5 1015.9 +13.6 +15.2
07 12.06 В 12 16 км 6/6 1470 м
[]
+14.3 +9.9 75 +11 +11 1015.4 1014.8
08 12.06 СВ 12 25 км 4/0
[]
+14.9 +10.2 73 +12 +12 1013.9 1013.3
09 12.06 В 12 19 км 6/6 800 м
[]
+14.3 +10.6 78 +11 +11 1015.4 1014.8
10 12.06 В 10 19 км 10/10 930 м
[]
+14.3 +10.7 79 +12 +12 1015.7 1015.1
11 12.06 В 9 17 км 9/9 630 м
[]
+14.9 +11.3 79 +13 +13 1015.8 1015.2
12 12.06 СВ 8 11 км слаб. ливневой дождь 10/10 540 м
[]
+14.3 +12.0 86 +12 +12 1015.7 1015.1 0.0
13 12.06 СВ 11 10 км морось {ливн. осадки, дождь} 9/9 1380 м
[]
+13.2 +11.9 92 +10 +10 1014.9 1014.3 1
14 12.06 СВ 13 17 км в посл. час морось 10/10 270 м
[]
+13.0 +11.7 92 +9 +9 1014.3 1013.7 0.3
15 12.06 В 14 15 км {ливн. осадки, дождь} 10/10 700 м
[]
+13.1 +11.7 91 +9 +9 1013.4 1012.8 1
16 12.06 В 16 13 км 10/10 720 м
[]
+12.7 +11.3 91 +8 +8 1012.5 1011.9
17 12.06 В 16 14 км 10/10 270 м
[]
+12.6 +11.0 90 +8 +8 1012.1 1011.5
18 12.06 В 15
{20}
13 км {ливн. осадки, дождь} 9/9 240 м
[]
+12.7 +11.2 91 +8 +8 1011.6 1011.0 +12.4 +15.8
19 12.06 В 13 11 км 9/9 240 м
[]
+12.9 +11.6 92 +9 +9 1011.6 1011.0
20 12.06 В 13 10 км 10/10 500 м
[]
+13.4 +12.0 91 +10 +10 1010.7 1010.1
21 12.06 В 13 13 км 10/10 500 м
[]
+13.5 +11.9 90 +10 +10 1010.0 1009.5
22 12.06 В 11 13 км 10/10 420 м
[]
+13.4 +11.9 91 +10 +10 1009.8 1009.2
23 12.06 В 7 14 км 10/10 400 м
[]
+13.7 +12.1 90 +11 +11 1009.4 1008.8
00 13.06 В 8 4000 м слаб. ливневой дождь 9/9 90 м
[]
+13.3 +12.7 96 +10 +10 1008.3 1007.7 0.0
01 13.06 В 5 5000 м дымка {ливн. осадки} 10/10 60 м
[]
+13.5 +13.0 97 +11 +11 1006.8 1006.2
02 13.06 В 6 8000 м дымка 10/10 90 м
[]
+13.6 +13.1 97 +11 +11 1007.1 1006.5
03 13.06 ЮВ 6 7000 м дымка {ливн. осадки} 10/10 60 м
[]
+14.0 +13.6 97 +12 +12 1007.1 1006.5 0.0
04 13.06 Ю 6 3400 м дымка 10/10 30 м
[]
+14.6 +14.3 98 +13 +13 1007.6 1007.0
05 13.06 Ю 7 6000 м дымка 10/10 400 м
[]
+14.7 +14.3 97 +13 +13 1008.1 1007.5
06 13.06 Ю 6 7000 м дымка {ливн. осадки} 10/10 700 м
[]
+14.8 +14.4 97 +13 +13 1008.3 1007.8 +12.6 +14.9
07 13.06 ЮЗ 7 14 км 9/9 270 м
[]
+15.2 +13.6 90 +13 +14 1009.1 1008.5
08 13.06 ЮЗ 5 23 км 9/9 570 м
[]
+15.4 +13.2 87 +14 +15 1010.1 1009.5
09 13.06 ЮЗ 5 35 км {дымка} 9/9 630 м
[]
+15.8 +12.1 79 +15 +15 1010.6 1010.0
10 13.06 З 3 30 км 4/4 630 м
[]
+16.4 +12.2 76 +16 +23 1011.3 1010.7
11 13.06 З 3 29 км 4/4 570 м
[]
+16.7 +11.3 70 +17 +25 1012.2 1011.6
12 13.06 ЮВ 3 30 км {дымка} 1/1 930 м
[]
+17.2 +12.8 75 +17 +28 1012.8 1012.2
13 13.06 ЮВ 2 35 км ясно +16.4 +12.6 78 +16 +30 опасность
простуды
1013.0 1012.4
14 13.06 В 5 29 км ясно +16.6 +13.2 80 +16 +22 1012.8 1012.2
15 13.06 ЮВ 6 27 км 1/1 1500 м
[]
+17.1 +13.9 81 +16 +20 1013.0 1012.5
16 13.06 ЮВ 7 25 км 9/0 2000 м
[]
+16.0 +13.6 86 +15 +16 1012.9 1012.4
17 13.06 ЮВ 7 20 км 9/9 1500 м
[]
+15.6 +13.8 89 +14 +14 1013.3 1012.8
18 13.06 Ю 4 5000 м ливневой дождь 9/9 300 м
[]
+14.8 +13.5 92 +14 +14 1014.1 1013.5 +14.7 +18.2 3
19 13.06 ЮВ 5 18 км в посл. час морось {ливн. осадки} 6/0 2000 м
[]
+15.2 +13.6 90 +14 +14 1014.6 1014.0
20 13.06 ЮВ 3 н/о 4/0 2000 м
[]
+15.0 +13.4 90 +14 +14 1014.9 1014.3
21 13.06 В 3 20 км {ливн. осадки} ясно +14.9 +13.7 93 +14 +14 1015.3 1014.7 0.0
22 13.06 ЮВ 3 30 км 1/0
[]
+14.8 +13.8 94 +14 +14 1015.5 1014.9
23 13.06 ЮВ 2 24 км ясно +14.7 +13.7 94 +15 +15 1015.2 1014.6
00 14.06 ЮВ 2 14 км {ливн. осадки} ясно +14.4 +13.7 96 +14 +14 1015.5 1014.9
01 14.06 ЮВ 4 23 км 9/0 2000 м
[]
+14.7 +14.1 96 +13 +13 1015.3 1014.8
02 14.06 ЮВ 5 40 км 6/0 2000 м
[]
+14.9 +13.7 93 +13 +13 1015.3 1014.7
03 14.06 Ю 7
{11}
2400 м сильн. дождь 9/9 450 м
[]
+14.9 +13.5 91 +13 +13 1015.6 1015.0 4
04 14.06 Ю 8 40 км в посл. час морось {ливн. осадки} 6/6 1500 м
[]
+15.3 +13.1 87 +13 +13 1015.7 1015.2 0.1
05 14.06 ЮВ 7 35 км 6/6 1500 м
[]
+15.3 +13.7 90 +13 +14 1015.9 1015.3
06 14.06 Ю 8
{11}
19 км в посл. час морось {ливн. осадки, дождь} 6/6 1110 м
[]
+15.9 +13.9 88 +14 +14 1016.1 1015.6 +13.0 +15.9 0.1
07 14.06 Ю 6 27 км ясно +15.8 +13.9 88 +14 +17 1016.8 1016.2
08 14.06 Ю 7 27 км ясно +16.1 +13.5 85 +15 +17 1017.2 1016.6
09 14.06 Ю 7 20 км 1/0
[]
+16.8 +14.0 84 +16 +19 1017.9 1017.3
10 14.06 Ю 7 20 км ясно +17.2 +14.5 84 +16 +20 1018.0 1017.4
11 14.06 ЮВ 7 21 км 4/0
[]
+16.1 +14.2 88 +15 +18 1018.2 1017.6
12 14.06 ЮВ 5 24 км в посл. час морось {ливн. осадки, дождь} 9/9 1470 м
[]
+15.9 +14.7 93 +15 +15 1018.7 1018.1 0.0
13 14.06 ЮВ 5 22 км 9/9 1500 м
[]
+15.7 +14.6 93 +14 +15 1018.8 1018.2
14 14.06 В 2 26 км 4/0
[]
+17.2 +14.6 85 +18 +27 1019.0 1018.4
15 14.06 ЮВ 4 28 км ясно +16.5 +14.9 90 +16 +21 1018.5 1017.9
16 14.06 ЮВ 6 30 км 1/0
[]
+16.6 +13.8 84 +16 +18 1018.2 1017.6
17 14.06 Ю 9 30 км слаб. морось {дождь} 6/0
[]
+16.6 +14.0 85 +15 +15 1018.8 1018.2
18 14.06 ЮЗ 3 16 км слаб. ливневой дождь 9/9 1500 м
[]
+15.4 +12.7 84 +15 +15 1018.7 1018.1 +15.3 +17.9 0.2
19 14.06 Ю 6 30 км в посл. час морось {ливн. осадки} 9/0 2000 м
[]
+15.8 +14.3 91 +14 +15 1018.1 1017.5 0.1
20 14.06 ЮВ 4 27 км 6/0
[]
+15.5 +14.3 93 +14 +14 1018.5 1017.9
21 14.06 ЮВ 3 35 км {ливн. осадки} 1/0
[]
+15.3 +14.2 93 +15 +15 1018.6 1018.0 0.1
22 14.06 ЮВ 2 15 км ясно +14.6 +13.9 96 +14 +14 1018.8 1018.2
23 14.06 ЮВ 4 50 км 1/1 1500 м
[]
+15.4 +13.5 88 +14 +14 1018.9 1018.3
00 15.06 ЮВ 4 50 км {ливн. осадки} ясно +15.5 +13.3 87 +15 +15 1018.7 1018.1
01 15.06 В 4 30 км 1/1 1500 м
[]
+14.5 +13.5 94 +13 +13 1018.5 1017.9
02 15.06 СВ 3 16 км 1/1 1500 м
[]
+14.0 +13.3 96 +13 +13 1018.2 1017.6
03 15.06 В 4 35 км 4/0 2000 м
[]
+14.9 +14.0 94 +14 +14 1017.8 1017.2
04 15.06 В 5 45 км 9/9 1500 м
[]
+15.2 +13.9 92 +14 +14 1017.6 1017.0
05 15.06 В 6 40 км ясно +15.7 +13.7 88 +14 +15 1017.0 1016.4
06 15.06 В 6 35 км 1/0
[]
+15.9 +13.5 86 +14 +16 1016.6 1016.1 +13.9 +16.7
07 15.06 В 7 30 км 1/0
[]
+17.0 +13.7 81 +16 +18 1016.1 1015.5
08 15.06 В 6 30 км 6/0
[]
+16.8 +13.8 82 +16 +18 1016.0 1015.4
09 15.06 В 6 30 км 4/0
[]
+17.7 +14.2 80 +17 +21 1015.8 1015.2
10 15.06 В 6 28 км 1/0
[]
+18.8 +14.5 76 +19 +24 1015.0 1014.4
11 15.06 В 5 35 км 4/0 2000 м
[]
+18.5 +14.5 78 +19 +25 1014.9 1014.3
12 15.06 ЮВ 6 35 км 1/0
[]
+18.5 +14.8 79 +19 +24 1014.9 1014.4
13 15.06 ЮВ 4 30 км 1/0
[]
+18.3 +14.8 80 +19 +27 1014.7 1014.1
14 15.06 ЮВ 2 35 км 9/0
[]
+19.3 +14.8 75 +21 +27 комфорт 1014.4 1013.9
15 15.06 ЮВ 3 40 км 4/0
[]
+18.3 +15.3 83 +19 +25 1014.5 1013.9
16 15.06 Ю 6 35 км 9/0
[]
+18.2 +12.3 68 +18 +19 1014.0 1013.4
17 15.06 Ю 10 26 км слаб. ливневой дождь 9/0 2000 м
[]
+18.0 +11.4 65 +17 +17 1013.9 1013.3
18 15.06 Ю 9 28 км в посл. час морось {ливн. осадки, дождь} 9/0
[]
+17.4 +12.7 74 +16 +16 1013.6 1013.0 +15.9 +19.7 0.0
19 15.06 ЮВ 8 22 км 9/9 1500 м
[]
+18.0 +12.6 71 +17 +17 1013.0 1012.5
20 15.06 В 4 30 км 9/0 2000 м
[]
+16.8 +13.8 82 +16 +16 1012.5 1011.9
21 15.06 В 5 45 км 9/0
[]
+16.5 +14.4 87 +16 +16 1013.1 1012.5
22 15.06 В 7 35 км 9/0
[]
+16.5 +14.1 86 +15 +15 1013.0 1012.4
23 15.06 ЮВ 7 50 км 9/0
[]
+17.5 +13.0 75 +17 +17 1012.9 1012.3
00 16.06 ЮВ 6 50 км 9/9 1110 м
[]
+16.6 +13.3 81 +16 +16 1012.7 1012.1
01 16.06 ЮВ 6 45 км 9/9 1230 м
[]
+16.5 +13.4 82 +15 +15 1012.4 1011.9
02 16.06 ЮВ 7 40 км 9/9 1500 м
[]
+16.3 +13.5 83 +15 +15 1012.1 1011.5
03 16.06 ЮВ 6 28 км 9/9 1500 м
[]
+15.8 +14.1 90 +14 +14 1012.1 1011.5
04 16.06 Ю 5 21 км 9/9 400 м
[]
+15.8 +14.6 93 +15 +15 1012.0 1011.5
05 16.06 Ю 6 21 км 9/9 400 м
[]
+15.7 +14.7 94 +14 +14 1012.5 1011.9
06 16.06 ЮЗ 5 11 км 9/9 240 м
[]
+15.6 +14.6 94 +14 +14 1012.9 1012.3 +15.5 +18.0
07 16.06 ЮЗ 4 12 км 9/9 210 м
[]
+15.5 +14.7 95 +15 +15 1013.4 1012.8
08 16.06 З 7 8000 м дымка 9/9 120 м
[]
+15.0 +13.8 93 +13 +13 1014.3 1013.8
09 16.06 З 8 23 км {дымка} 9/9 90 м
[]
+13.6 +12.6 94 +11 +11 1015.1 1014.5
10 16.06 З 9 35 км 9/9 120 м
[]
+14.5 +12.6 88 +12 +12 1015.5 1014.9
11 16.06 З 10 30 км 9/9 180 м
[]
+15.3 +11.6 79 +13 +13 1016.0 1015.5
12 16.06 З 10 27 км {дымка} ясно +16.6 +11.3 71 +15 +15 1016.4 1015.8
13 16.06 З 9 30 км ясно +17.1 +10.7 66 +16 +17 1017.2 1016.7
14 16.06 З 6 35 км 1/0
[]
+17.7 +10.8 64 +17 +21 1017.4 1016.8
15 16.06 З 7 35 км ясно +18.1 +10.3 60 +17 +20 1017.5 1016.9
16 16.06 З 8 35 км ясно +16.8 +11.8 72 +15 +17 1017.4 1016.8
17 16.06 З 9 30 км 9/0
[]
+15.9 +12.5 80 +14 +14 1017.7 1017.1
18 16.06 З 8 28 км ясно +14.9 +12.3 84 +13 +13 1018.0 1017.4 +13.3 +18.5
19 16.06 З 6 30 км ясно +14.3 +11.8 85 +12 +13 1017.8 1017.2
20 16.06 З 5 25 км ясно +13.6 +11.9 89 +12 +12 1017.9 1017.4
21 16.06 З 4 23 км ясно +12.6 +11.4 92 +11 +11 1018.2 1017.6
22 16.06 З 4 19 км 9/9 210 м
[]
+12.9 +11.8 93 +11 +11 1018.5 1017.9
23 16.06 З 4 24 км 1/1 210 м
[]
+12.2 +11.1 93 +10 +10 1018.6 1018.0
00 17.06 З 4 24 км 1/1 270 м
[]
+12.1 +10.9 92 +10 +10 1018.7 1018.1
01 17.06 З 4 29 км ясно +11.8 +10.4 91 +10 +10 1018.6 1018.0
02 17.06 З 4 21 км 4/4 270 м
[]
+11.7 +10.7 94 +9 +9 1018.6 1018.1
03 17.06 ЮЗ 4 14 км ясно +11.3 +10.3 94 +9 +9 1018.9 1018.3
04 17.06 ЮЗ 3 18 км ясно +12.5 +11.3 92 +11 +11 1019.1 1018.5
05 17.06 ЮЗ 4 20 км ясно +12.9 +11.4 91 +11 +12 1019.1 1018.5
06 17.06 ЮЗ 3 24 км ясно +13.4 +11.2 87 +12 +15 1019.2 1018.6 +11.1 +15.1
07 17.06 Ю 5 30 км ясно +14.6 +11.6 82 +13 +17 1019.3 1018.8
08 17.06 Ю 5 30 км 4/4 1170 м
[]
+15.3 +10.1 71 +14 +17 1019.6 1019.0
09 17.06 Ю 5 35 км 9/9 800 м
[]
+16.0 +12.4 79 +15 +15 1019.4 1018.9
10 17.06 Ю 6 29 км 9/9 800 м
[]
+15.9 +13.4 85 +15 +15 1019.6 1019.0
11 17.06 Ю 7 29 км 1/1 570 м
[]
+16.3 +13.6 84 +15 +19 1019.4 1018.9
12 17.06 Ю 7 24 км 4/4 1020 м
[]
+16.2 +14.1 87 +15 +18 1019.5 1018.9
13 17.06 Ю 4 27 км в посл. час морось {ливн. осадки, дождь} 6/6 1500 м
[]
+16.8 +14.0 84 +16 +20 1019.2 1018.6
14 17.06 ЮЗ 3 35 км 9/9 800 м
[]
+17.0 +13.9 82 +17 +18 1019.4 1018.8
15 17.06 З 8 35 км {ливн. осадки, дождь} 6/6 1170 м
[]
+17.0 +11.5 70 +16 +16 1019.0 1018.5 0.0
17 17.06 З 6 35 км 1/1 1300 м
[]
+18.5 +11.4 63 +19 +20 1018.8 1018.2
18 17.06 З 5 35 км {ливн. осадки, дождь} 6/6 1380 м
[]
+18.5 +11.5 64 +19 +19 1018.8 1018.2 +13.4 +19.4

 

Местоположение метеостанции Скаген (Дания): широта 57.73 долгота 10.63 высота над уровнем моря 5 м.

В архиве по умолчанию представлена погода в Скагене за последнюю неделю. Архивные данные за месяц целиком и за предыдущие месяцы, начиная с января 2011 года, Вы можете получить, выбрав интересующий диапазон дат из раскрывающегося списка и нажав кнопку "Ввод!".


*Определитесь, кто Вы:
робот инопланетянин человек

Внимание! Время в таблицах - всемирное. Для получения местного времени необходимо прибавить поправку, которая равна 1 ч.

Смотрите также архив погоды в соседних городах и на ближайших метеорологических станциях:

Погода в Стенхое (Дания) (43 км)
Погода на Маяке Maseskar (Швеция) (58 км)
Погода в Винге (Швеция) (60 км)
Погода в Тылструпе (Дания) (73 км)
Погода в Гетеборге (Швеция) (81 км)
Погода в Ольборге (Дания) (84 км)
Погода на Маяке Nidingen (Швеция) (90 км)
Погода на Вадероарна (Швеция) (98 км)
Погода в Гетеборг-Ландветтере (Швеция) (99 км)
Погода в Торпаброне (Швеция) (103 км)

Пояснения к столбцам:

Ветер - указаны скорость ветра в м/с - средняя за 10 мин, порывы в срок и между сроками (в фигурных скобках) и направление, откуда дует ветер: С - северный, СВ - северо-восточный, В - восточный, ЮВ - юго-восточный, Ю - южный, ЮЗ - юго-западный, З - западный, СЗ - северо-западный.
Видимость - горизонтальная дальность видимости в метрах или километрах. При видимости от 1 до 10 км при отсутствии осадков обычно наблюдается дымка, при ухудшении видимости до 1 км и менее - туман. В сухую погоду видимость может ухудшаться дымом, пылью или мглою.
Явления - указаны атмосферные явления, наблюдавшиеся в срок или в последний час перед сроком; фигурными скобками обозначены явления, наблюдавшиеся между сроками (за 1-3 часа до срока); квадратными скобками обозначены град или гололедные отложения с указанием их диаметра в мм.
Облачность - указаны через наклонную черту общая и нижняя облачность в баллах и высота нижней границы облаков в метрах; квадратными скобками обозначены формы облаков: Ci - перистые, Cs - перисто-слоистые, Cc - перисто-кучевые, Ac - высококучевые, As - высокослоистые, Sc - слоисто-кучевые, Ns - слоисто-дождевые, Cu - кучевые, Cb - кучево-дождевые. Подробнее классификацию облаков см. в Атласе облаков (PDF).
T - Температура воздуха - температура, измеренная на высоте 2 м над землей.
Td - Температура точки росы - температура, при понижении до которой содержащийся в воздухе водяной пар достигнет насыщения.
f - Относительная влажность воздуха - влажноcть воздуха, измеренная на высоте 2 м над землей.
Te - Эффективная температура - температура, которую ощущает одетый по сезону человек в тени. Характеристика душности погоды. При расчете учитывается влияние влажности воздуха и скорости ветра на теплоощущения человека.
Tes - Эффективная температура на солнце - температура, которую ощущает человек, с поправкой на солнечный нагрев. Характеристика знойности погоды. Зависит от высоты солнца над горизонтом, облачности и скорости ветра. Ночью, в пасмурную погоду, а также при ветре 12 м/с и более поправка равна нулю.
P - Атмосферное давление - приведенное к уровню моря атмосферное давление.
Po - Атмосферное давление - измеренное на уровне метеостанции атмосферное давление.
Tmin - Минимальная температура - минимум температуры воздуха на высоте 2 м над землей.
Tmax - Максимальная температура - максимум температуры воздуха на высоте 2 м над землей.
R - Количество осадков - Количество выпавших осадков за период времени, мм. При наведении курсора мыши на число - период времени, за который выпало указанное количество осадков.
R24 - Количество осадков - Количество выпавших осадков за 24 часа, мм.
S - Снежный покров - Высота снежного покрова, см. При наведении курсора мыши на число - состояние снежного покрова и степень покрытия местности в баллах.